Volver al catálogo

STARLINK-3881

ActivoComunicacionesVLEO
NORAD 52472·PAYLOAD·🇺🇸 United States

Lanzado May 6, 2022 desde Cape Canaveral Space Force Station

Loading…

Próximos Pases (próximas 24 horas)

TLE

ActualizadoSource: CelesTrak SupGP

Época: Sep 15, 2026, 02:13 UTC

1 52472C 22049X   26258.09284722  .00008901  00000+0  27006-3 0  2587
2 52472  53.1567 279.1243 0001100  93.9798 299.8051 15.33549254    10

Sigue STARLINK-3881 en tiempo real con AllMySat

Download on the App Store